Погода в Лесколове

Россия / Санкт-Петербург и Ленинградская область     60°16′18″N   30°27′49″E
темп.,
°C
ветер,
м/с
пор.,
м/с
влажн.,
%
обл.,
%
осадки,
мм/ч
давл.,
гПа
погр.,
м
21 января, пт
пт2100:00−3ююз399430 0.2 987311
03:00−8ю279985 0.2 98993
06:00−9ююв259980 0.1 99072
09:00−12ююв1110095 0.1 9939
12:00−8вюв1210094 0.0 99550
15:00−6св249980 0.0 997131
18:00−7ссв389986 0.0 999199
21:00−4ссв41096100 0.1 1002526
22 января, сб
сб2200:00−3ссв41094100 0.1 1004660
03:00−4с51094100 0.5 1006566
06:00−5с51194100 0.3 1007569
09:00−5ссв51095100 1.2 1009708
12:00−5св4895100 1.4 1011642
15:00−6св379389 1.6 1014463
18:00−12с229982 0.0 101726
21:00−13ссв1110089 0.0 101917
23 января, вс
вс2300:00−15ссв1110091 0.0 102215
03:00−17с21100100 0.0 102411
06:00−18в11100100 0.0 102510
09:00−19сз1110099 0.0 102910
12:00−13ююз129747 0.0 103059
15:00−10ююз249661 0.0 1031117
18:00−16ююз119999 0.0 103215
21:00−14юз269870 0.0 103277
24 января, пн
пн2400:00−13ююз389627 0.0 1032120
03:00−11ююз312935 0.0 1032230
06:00−10ююз413917 0.0 1030314
09:00−9ююз516885 0.0 1029369
12:00−8ююз5178599 0.0 1027506
15:00−6ююз6188295 0.0 1025614
18:00−6ююз61781100 0.0 1023602
21:00−6ююз61692100 0.3 1020655
25 января, вт
вт2500:00−6ююз51495100 1.4 1019595
03:00−6ююз41195100 2.8 1017526
06:00−6ююз4996100 0.9 1016420
09:00−6ююз2696100 2.1 1016271
12:00−5ююз2396100 0.5 1016169
15:00−4зсз1297100 0.9 1017166
18:00−3с3996100 0.3 1019477
21:00−4с399697 0.4 1021398